Other Public Products
Issued by NWS Charleston, SC

Home | Current Version | Previous Version | Text Only | Print | Product List | Glossary On
Versions: 1 2 3 4 5 6 7 8 9 10 11 12 13 14 15 16 17 18 19 20 21 22 23 24 25 26 27 28 29 30 31 32 33 34 35 36 37 38 39 40 41 42 43 44 45 46 47 48 49 50
724
FPUS82 KCHS 232227
OPUCHS

TEST...KCHS/KSAV Gateway Observations...TEST
National Weather Service Charleston SC
600 PM EDT THU MAR 23 2017

NOTE: "fair" indicates few or no clouds below 12,000 feet with no
significant weather and/or obstructions to visibility.

SCZ050-WAZ558-NCZ071-TXZ119-213-PAZ071-DCZ001-FLZ074-172-MI076-
NYZ176-178-MAZ016-IL014-TNZ027-NJZ106-GAZ044-MD014-232300-

...Gateway Observations for Charleston International...

CITY           SKY/WX    TMP DP  RH WIND       PRES   REMARKS
Chas Airport   SUNNY     61  41  47 E14       30.47R
Seattle        PTSUNNY   56  36  47 W8        29.98F
Charlotte      MOSUNNY   58  19  22 VRB5      30.47F
Dallas DFW     MOSUNNY   85  47  26 S30G39    29.87F
Dallas Love    MOSUNNY   85  49  28 S28G39    29.90F
Philladelphia  MOSUNNY   45   8  22 W14       30.52F
Wash National  MOSUNNY   47   9  21 S8        30.53F
Baltimore      MOSUNNY   45  14  28 SE9       30.51F
Miami          CLOUDY    75  64  68 NE16G24   30.15R
Detroit        CLOUDY    42  11  28 SE12      30.33F
Newark         MOSUNNY   44  -2  14 VRB6      30.50F
Laguardia      MOSUNNY   44   2  17 NW10      30.50S
J F K          MOSUNNY   43  -1  16 NW12      30.51F
Boston Logan   MOSUNNY   37  -1  20 NW17G26   30.43R WCI  27
Ft. Lauderdale CLOUDY    73  66  78 NE17G31   30.16R
Chicago O`Hare CLOUDY    49  26  41 S17G24    30.14F
Chicago Midway CLOUDY    50  26  39 S13G23    30.15F
Houston Bush   MOSUNNY   83  54  36 S18G28    30.05F
Houston Hobby  MOSUNNY   80  55  42 S17G26    30.06F
Nashville      PTSUNNY   72  42  34 S15       30.23F
Atlanta        PTSUNNY   64  37  36 E14       30.37F

$$

GAZ044-118-TXZ119-213-NCZ071-DCZ001-MDZ014-506-PAZ021-071-NJZ106-
NYZ176-178-MAZ106-OHZ011-021-055-MIZ076-KYZ091-ILZ014-INZ047-
MNZ060-ONZ431-232300-

...Gateway Observations for Savannah International...

CITY           SKY/WX    TMP DP  RH WIND       PRES   REMARKS
Savannah Arpt  MOSUNNY   64  38  38 E15       30.44S
Atlanta        PTSUNNY   64  37  36 E14       30.37F
Charlotte      MOSUNNY   58  19  22 VRB5      30.47F
Dallas DFW     MOSUNNY   85  47  26 S30G39    29.87F
Houston Bush   MOSUNNY   83  54  36 S18G28    30.05F
Wash National  MOSUNNY   47   9  21 S8        30.53F
Wash Dulles    MOSUNNY   48   2  15 S3        30.50F
Baltimore      MOSUNNY   45  14  28 SE9       30.51F
Philadelphia   MOSUNNY   45   8  22 W14       30.52F
Newark         MOSUNNY   44  -2  14 VRB6      30.50F
Laguardia      MOSUNNY   44   2  17 NW10      30.50S
J F K          MOSUNNY   43  -1  16 NW12      30.51F
Boston         MOSUNNY   37  -1  20 NW17G26   30.43R WCI  27
Pittsburg      MOSUNNY   49  -2  12 S3        30.36F
Akron          MOSUNNY   49  10  20 S10       30.34F
Cleveland      MOSUNNY   51   9  18 S12       30.36F
Cincinnati     MOSUNNY   60  26  27 S8        30.25F
Columbus       SUNNY     55  18  23 S5        30.29F
Detroit        CLOUDY    42  11  28 SE12      30.33F
Chicago O`Hare CLOUDY    49  26  41 S17G24    30.14F
Minneapolis    DRIZZLE   38  31  76 SE17G25   29.88F WCI  28
Indianapolis   CLOUDY    55  24  30 SE9       30.22F
Toronto Canada MOSUNNY   34  12  40 SE9       30.41F WCI  26

$$




USA.gov is the U.S. government's official web portal to all federal, state and local government web resources and services.